Orbital Elements at Epoch 2459000.5 (2020-May-31.0) TDB
Reference: JPL 7 (heliocentric ecliptic J2000)
Element | Value | Uncertainty (1-sigma) | Units |
e | .2143214650076227 | 9.0173e-08 | |
a | 2.385675173272727 | 1.5511e-08 | au |
q | 1.874373775104602 | 2.22e-07 | au |
i | 2.126936307996597 | 6.9061e-06 | deg |
node | 191.9228298100853 | 0.00016578 | deg |
peri | 166.8473423059241 | 0.00016787 | deg |
M | 60.10481401736295 | 2.1501e-05 | deg |
tp | 2458775.790129038086 (2019-Oct-19.29012904) | 7.9886e-05 | TDB |
period | 1345.908058594445 3.68 | 1.3126e-05 3.594e-08 | d yr |
n | .2674774088030607 | 2.6087e-09 | deg/d |
Q | 2.896976571440852 | 1.8836e-08 | au |
|
| | Orbit Determination Parameters
Additional Information
|